User: anonymous   Login
Location: Unspecified
(0.0000°N, 0.0000°E)
Time: 09:19:57
(UTC+00:00)
Language:

SRMSAT - Orbit

View from above orbital plane
View from above orbital plane
View from above satellite
View from above satellite

Ground track
Ground track

The orbit data is extracted from the following two-line orbital elements,

1 37841U 11058D   17086.49541689 +.00000328 +00000-0 +35255-4 0  9993
2 37841 019.9720 265.8157 0011794 264.1423 126.0874 14.10568496281734
Epoch (UTC): 27 March 2017 11:53:24
Eccentricity: 0.0011794
inclination: 19.9720°
perigee height: 849 km
apogee height: 866 km
right ascension of ascending node: 265.8157°
argument of perigee: 264.1423°
revolutions per day: 14.10568496
mean anomaly at epoch: 126.0874°
orbit number at epoch: 28173

The dashed part of the orbit path shows where the satellite is in the earth's shadow,  

DLR